Location: Burzi?i
(45.0869°N, 16.0577°E)
Time: 04:21:19
(UTC+00:00)

USA 215 - Pass Details

Date: 29 October 2020
Orbit: 1102 x 1106 km, 123.0° (Epoch: 28 November)

Event Time Altitude Azimuth Distance (km) Brightness Sun altitude
Exits shadow 16:22:47 - 61° (ENE) 3,281 5.1 -6.8°
Reaches altitude 10° 16:23:43 10° 57° (ENE) 2,964 4.9 -7.0°
Maximum altitude 16:29:18 31° 358° (N) 1,824 4.4 -7.9°
Drops below altitude 10° 16:34:52 10° 300° (WNW) 2,965 6.3 -8.9°
Sets 16:37:37 0° 290° (WNW) 3,923 7.3 -9.4°
